Miscellaneous Local Product
Issued by NWS Hastings, NE

Home | Current Version | Previous Version | Graphics & Text | Print | Product List | Glossary On
Versions: 1 2 3 4 5 6 7 8 9 10 11 12 13 14 15 16 17 18 19 20 21 22 23 24 25 26 27 28 29 30 31 32 33 34 35 36 37 38 39 40 41 42 43 44 45 46 47 48 49 50
000
AXUS43 KGID 212202
MISGRI

GID CWA HOURLY WEATHER ROUNDUP
NATIONAL WEATHER SERVICE HASTINGS NE
500 PM CDT MON AUG 21 2017

NOTE: "FAIR" INDICATES FEW OR NO CLOUDS BELOW 12,000 FEET WITH NO
SIGNIFICANT WEATHER AND/OR OBSTRUCTIONS TO VISIBILITY.

...SOUTH CENTRAL NEBRASKA...

CITY           SKY/WX    TMP DP  RH WIND       PRES   REMARKS
GRAND ISLAND   PTSUNNY   85  69  58 S10       29.94S
HASTINGS       CLOUDY    86  67  52 SW12G17   29.95F
KEARNEY        PTSUNNY   83  68  60 SW9       29.95S
ORD            SUNNY     81  67  62 N12       29.94R
YORK           MOSUNNY   82  72  69 S12       29.94F
AURORA         PTSUNNY   86  68  54 SW12      29.94S
LEXINGTON      PTSUNNY   84  66  53 S7        29.95F
HOLDREGE       CLOUDY    85  64  48 S6        29.95F
HEBRON         CLOUDY    84  71  63 S9        29.94F

...NEBRASKA PANHANDLE...

CITY           SKY/WX    TMP DP  RH WIND       PRES   REMARKS
CHADRON        SUNNY     84  46  26 NE14G22   30.10S
ALLIANCE       SUNNY     80  47  31 N18G30    30.11R
SCOTTSBLUFF    SUNNY     84  46  26 NE12      30.13R
SIDNEY         SUNNY     84  53  34 NE22G29   30.13R

...WESTERN AND NORTH CENTRAL NEBRASKA...

CITY           SKY/WX    TMP DP  RH WIND       PRES   REMARKS
VALENTINE      PTSUNNY   80  61  52 N15G22    30.03R
AINSWORTH      CLOUDY    75  68  78 NE3       30.03R
ONEILL         CLOUDY    72  66  80 SW3       29.97S
BROKEN BOW     PTSUNNY   84  70  62 N9        29.97R
IMPERIAL       MOSUNNY   85  66  53 N16       30.00R
NORTH PLATTE   CLOUDY    83  70  64 NE8       29.98R
MCCOOK         PTSUNNY   86  63  45 SW6       29.95S

...EASTERN NEBRASKA...

CITY           SKY/WX    TMP DP  RH WIND       PRES   REMARKS
NORFOLK        CLOUDY    75  66  73 NE10      29.94R
SO SIOUX CITY  CLOUDY    70  67  90 SE13      29.92F
TEKAMAH        CLOUDY    73  64  73 N14G28    29.98R
COLUMBUS       MOSUNNY   80  69  69 E13       29.93F
ALBION         MOSUNNY   78  68  70 NE7       29.94S
OMAHA EPPLEY   PTSUNNY   82  72  71 S5        29.94R
OFFUTT AFB     CLOUDY    84  73  69 S7        29.93R HX  90
MILLARD        CLOUDY    85  74  70 S8        29.95R HX  92
LINCOLN        MOSUNNY   83  71  67 S10       29.93F
NEBRASKA CITY  MOSUNNY   85  74  70 SW12      29.95R HX  92
BEATRICE       CLOUDY    85  72  65 S13       29.93F HX  91
FALLS CITY     CLOUDY    84  74  71 S9        29.95R HX  91

...NORTHERN KANSAS...

CITY           SKY/WX    TMP DP  RH WIND       PRES   REMARKS
GOODLAND       SUNNY     89  63  41 N9        30.00R HX  90
HILL CITY      CLOUDY    90  65  43 SW8       29.93S HX  92
NORTON         CLEAR     88  59  37 SW7       29.93
PHILLIPSBURG   SUNNY     90  64  43 SE8       29.92S HX  91
SMITH CENTER   SUNNY     88  66  48 S14G21    29.93F HX  90
HAYS           MOSUNNY   89  66  46 SW17G25   29.93F HX  91
RUSSELL        CLOUDY    91  62  37 S22G35    29.92F HX  91
CONCORDIA      CLOUDY    83  72  69 S10       29.95F
SALINA         CLOUDY    91  70  49 S14G24    29.94S HX  96
TOPEKA         PTSUNNY   91  76  61 S10       29.94S HX 103



USA.gov is the U.S. government's official web portal to all federal, state and local government web resources and services.